Regional Weather Roundup
Issued by NWS

Home | Current Version | Previous Version | Text Only | Print | Product List | Glossary On
Versions: 1 2 3 4 5 6 7 8 9 10 11 12 13 14 15 16 17 18 19 20 21 22 23 24 25 26 27 28 29 30 31 32 33 34 35 36 37 38 39 40 41 42 43 44 45 46 47 48 49 50
000
ASUS43 KLOT 170112
RWRIL

ILLINOIS REGIONAL WEATHER ROUNDUP
NATIONAL WEATHER SERVICE CHICAGO/ROMEOVILLE IL
700 PM CST MON JAN 16 2017

NOTE: "FAIR" INDICATES FEW OR NO CLOUDS BELOW 12,000 FEET WITH NO
SIGNIFICANT WEATHER AND/OR OBSTRUCTIONS TO VISIBILITY.

* THESE STATIONS ARE NOT UNDER NWS QUALITY CONTROL. THEY ALSO MAY NOT
  REPORT WEATHER SUCH AS PRECIPITATION OR FOG.

ILZ001-002-007-009-015-016-024-170200-
NORTHWEST ILLINOIS

CITY           SKY/WX    TMP DP  RH WIND       PRES   REMARKS
MOLINE         CLOUDY    37  35  92 E7        29.90F FOG     WCI  32
STERLING*      LGT RAIN  35  35 100 SE7       29.95F WCI  29
SAVANNA*       CLOUDY    36  35  97 CALM      29.94F FOG
$$

ILZ003-004-008-010-011-017-018-170200-
NORTH CENTRAL ILLINOIS

CITY           SKY/WX    TMP DP  RH WIND       PRES   REMARKS
ROCKFORD       RAIN      36  35  96 VRB3      30.00R FOG
FREEPORT*      DRIZZLE   34  34  99 E10       29.98F WCI  26
ROCHELLE*      LGT RAIN  35  35  99 E7        29.98S WCI  29
DE KALB*       LGT RAIN  36  36  99 E9        29.99R WCI  29
$$

ILZ005-006-012>014-019>023-170200-
NORTHEAST ILLINOIS

CITY           SKY/WX    TMP DP  RH WIND       PRES   REMARKS
CHICAGO-OHARE  LGT RAIN  36  35  96 E8        29.99F VSB 1/2 WCI  30
CHICAGO-MIDWAY RAIN      36  34  92 E9        29.99F VSB 1   WCI  29
AURORA         CLOUDY    38  36  92 E10       29.97F FOG     WCI  31
LANSING*       LGT RAIN  38  38 100 SE6       30.01F WCI  33
JOLIET*        LGT RAIN  40  40 100 CALM      29.98F
WAUKEGAN       FOG       36  36 100 E9        30.01F VSB 3/4 WCI  29
DUPAGE AIRPORT RAIN      37  35  92 E7        29.96F FOG     WCI  32
KANKAKEE*      CLOUDY    39  38  98 E10       29.97F FOG     WCI  32
WHEELING       LGT RAIN  36  35  96 E7        30.01F FOG     WCI  30
MORRIS*        RAIN      37  36  98 E5        29.97F WCI  33
ROMEOVILLE*    LGT RAIN  37  37 100 E9        29.98F WCI  30
NORTHERLY ISL    N/A     33  33 100 NE6         N/A  WCI  28
$$

LMZ740>746-170200-
SOUTHERN LAKE MICHIGAN

STATION/POSITION SKY/WX   TEMP    WIND        PRES    VSBY  WAVE
                          AIR SEA DIR/SP/G                  HT/PER
                          (F)     (DEG/KT/KT) (MB)    (MI)  (FT/S)
HARRISON CRIB              37     100/ 11/ 12   N/A
BURNHAM HARBOR             34      60/  7/  7   N/A
CALUMET HARBOR             34      40/  6/  8 1015.8F
BURNS HARBOR               39     140/ 10/ 14 1016.9F
MICHIGAN CITY              38     110/  7/  9   N/A
$$

ILZ025>027-034>036-040-047-049-050-058-095>099-170200-
WEST-CENTRAL ILLINOIS

CITY           SKY/WX    TMP DP  RH WIND       PRES   REMARKS
QUINCY         FOG       44  44 100 E9        29.86F VSB 1/4
GALESBURG*     CLOUDY    39  39 100 E6        29.90F FOG     WCI  35
MACOMB*        FOG       37  37 100 E6        29.92F VSB 1/4 WCI  32
JACKSONVILLE*  FOG       44  44  99 SE5       29.90F VSB 1/4
PITTSFIELD*    FOG       48  48 100 SE7       29.88F VSB 1/4
$$

ILZ028>032-037-038-041>044-048-051>054-059>061-170200-
CENTRAL ILLINOIS

CITY           SKY/WX    TMP DP  RH WIND       PRES   REMARKS
PONTIAC        LGT RAIN  38  38 100 SE5       29.96F VSB 3/4 WCI  35
BLOOMINGTON    LGT RAIN  44  43  96 S10       29.94S VSB 3/4
DECATUR        LGT RAIN  50  50 100 S13       29.93F FOG
PEORIA         LGT RAIN  42  42 100 E8        29.92F VSB 1/8
LACON*         CLOUDY    37  37 100 CALM      29.95F FOG
LINCOLN*       DRZL/FOG  46  46 100 SE3       29.93F VSB 1/2
SPRINGFIELD    CLOUDY    51  50  96 S10       29.92F FOG
TAYLORVILLE    DRIZZLE   52  51  99 SE6       29.93R
$$

ILZ033-039-045-046-055>057-062-063-170200-
EAST-CENTRAL ILLINOIS

CITY           SKY/WX    TMP DP  RH WIND       PRES   REMARKS
CHAMPAIGN      LGT RAIN  47  45  93 SE12      29.95F VSB 1/4
RANTOUL*       FOG       47  47 100 SE12      29.95F VSB 1/2
MATTOON        LGT RAIN  52  52 100 SE16G24   29.93F FOG
PARIS*         CLOUDY    51  51 100 SE13      29.99F FOG
$$

ILZ079-100>102-170200-
SOUTHWEST ILLINOIS

CITY           SKY/WX    TMP DP  RH WIND       PRES   REMARKS
ALTON          LGT RAIN  52  52 100 E6        29.91F
BELLEVILLE     CLOUDY    57  57 100 SE8       29.90F THUNDER
CAHOKIA*       CLOUDY    53  51  93 CALM      29.90F FOG
SPARTA*        TSTM      56  56  98 S8        29.94R
$$

ILZ064>066-069>071-074>076-080>082-084>086-088>090-092>094-170200-
SOUTH-CENTRAL ILLINOIS

CITY           SKY/WX    TMP DP  RH WIND       PRES   REMARKS
CARBONDALE     CLOUDY    60  59  96 S14G20    29.93F
CAIRO*         CLOUDY    61  59  94 SE10      29.97S
EFFINGHAM*     CLOUDY    53  53 100 SE15      29.98S
MARION         CLOUDY    59  59 100 S13G20    29.94F
MT. VERNON     RAIN      55  54  96 VRB7      29.96S FOG
CENTRALIA*     CLOUDY    55  55  99 SE7       29.93F THUNDER
SALEM*         CLOUDY    55  53  94 CALM      29.95F
METROPOLIS*    HVY RAIN  61  58  90 S6        29.99R
$$

ILZ067-068-072-073-078-083-087-091-170200-
SOUTHEAST ILLINOIS

CITY           SKY/WX    TMP DP  RH WIND       PRES   REMARKS
LAWRENCEVILLE  LGT RAIN  54  53  97 S8        30.00F
FLORA*         TSTM      55  54  94 SE12      29.97S
FAIRFIELD*     RAIN      55  55  99 CALM      29.97S
HARRISBURG*    TSTM      55  54  97 SE6       29.97F
ROBINSON*      CLOUDY    52  52  99 SE12      30.01F
CARMI*         TSTM      53  53 100 E7        29.97F
$$

ABBREVIATIONS USED IN REMARKS
   TC - TEMPERATURE IN CELSIUS
  WCI - WIND CHILL INDEX
   HX - HEAT INDEX
  VSB - VISIBILITY
$$





USA.gov is the U.S. government's official web portal to all federal, state and local government web resources and services.